This is the latest recevied weather packets stored in our database for station/object OK1FRN-6. If no packets are shown the sender has not sent any weather packets the latest 10 day(s).
| Time | Temp. | Humidity | Pressure | Rain* | Wind** | Luminosity | Snow |
|---|---|---|---|---|---|---|---|
| 1777669706 | 10° C | 49% | 1027.3 hPa | - | - | - | - |
| 1777669397 | 10° C | 49% | 1027.3 hPa | - | - | - | - |
| 1777669091 | 10° C | 49% | 1027.3 hPa | - | - | - | - |
| 1777667868 | 11.11° C | 48% | 1027.2 hPa | - | - | - | - |
| 1777667562 | 11.11° C | 47% | 1027.2 hPa | - | - | - | - |
| 1777667256 | 11.11° C | 47% | 1027.2 hPa | - | - | - | - |
| 1777666950 | 11.11° C | 46% | 1027.2 hPa | - | - | - | - |
| 1777666644 | 11.67° C | 46% | 1027.2 hPa | - | - | - | - |
| 1777666032 | 12.22° C | 45% | 1027.2 hPa | - | - | - | - |
| 1777665726 | 12.22° C | 44% | 1027.1 hPa | - | - | - | - |
| 1777665420 | 12.78° C | 44% | 1027.2 hPa | - | - | - | - |
| 1777664196 | 13.33° C | 42% | 1027.1 hPa | - | - | - | - |
| 1777663584 | 13.89° C | 41% | 1027.1 hPa | - | - | - | - |
| 1777663278 | 14.44° C | 41% | 1027 hPa | - | - | - | - |
| 1777662972 | 14.44° C | 40% | 1027.1 hPa | - | - | - | - |
| 1777662666 | 15° C | 40% | 1027 hPa | - | - | - | - |
| 1777661747 | 15.56° C | 39% | 1027 hPa | - | - | - | - |
| 1777661441 | 16.11° C | 38% | 1026.9 hPa | - | - | - | - |
| 1777660522 | 17.22° C | 37% | 1026.8 hPa | - | - | - | - |
| 1777659296 | 18.33° C | 35% | 1026.7 hPa | - | - | - | - |
| 1777656537 | 20.56° C | 32% | 1026.5 hPa | - | - | - | - |
| 1777654697 | 21.67° C | 30% | 1026.6 hPa | - | - | - | - |
| 1777654390 | 21.67° C | 30% | 1026.6 hPa | - | - | - | - |
| 1777653470 | 21.67° C | 29% | 1026.7 hPa | - | - | - | - |
| 1777653163 | 21.67° C | 29% | 1026.7 hPa | - | - | - | - |
* Rain since midnight (hover to see other rain measurements)
** Current wind speed in m/s (hover to see current wind gust speed)